GW5486 Weather Reports


time (UTC)temp
C
wind
direction
speed
KPH
gust
KPH
rain 1hr
cm
rain 24hr
cm
rain mn
cm
humidity
%
barometer
mb
20260506211554 22 281 6.4 16.1 0.00 0.00 0.00 46 1020.0
20260506211017 21 186 8.0 16.1 0.00 0.00 0.00 46 1020.0
20260506210525 21 138 9.7 19.3 0.00 0.00 0.00 48 1019.9
20260506210059 21 131 6.4 20.9 0.00 0.00 0.00 46 1020.1
20260506205516 21 186 9.7 20.9 0.00 0.00 0.00 46 1020.2
20260506205019 21 174 3.2 17.7 0.00 0.00 0.00 47 1020.0
20260506204555 21 188 11.3 17.7 0.00 0.00 0.00 46 1020.0
20260506204016 21 231 6.4 12.9 0.00 0.00 0.00 45 1020.1
20260506203516 21 184 6.4 16.1 0.00 0.00 0.00 48 1020.0
20260506203051 21 169 4.8 17.7 0.00 0.00 0.00 49 1020.0
20260506202519 21 175 9.7 14.5 0.00 0.00 0.00 47 1020.1
20260506202019 21 184 3.2 9.7 0.00 0.00 0.00 49 1020.1
20260506201529 20 16 3.2 8.0 0.00 0.00 0.00 48 1020.1
20260506201011 20 325 4.8 11.3 0.00 0.00 0.00 47 1020.2
20260506200508 20 98 3.2 11.3 0.00 0.00 0.00 47 1020.3
20260506200034 20 88 4.8 12.9 0.00 0.00 0.00 51 1020.5
20260506195511 20 103 3.2 12.9 0.00 0.00 0.00 49 1020.6
20260506195011 20 134 6.4 9.7 0.00 0.00 0.00 49 1020.5
20260506194528 20 300 1.6 6.4 0.00 0.00 0.00 49 1020.6
20260506194011 19 40 3.2 8.0 0.00 0.00 0.00 51 1020.7
20260506193511 19 9 1.6 12.9 0.00 0.00 0.00 49 1020.8
20260506193038 18 268 3.2 14.5 0.00 0.00 0.00 49 1020.8
20260506192510 18 351 6.4 12.9 0.00 0.00 0.00 49 1020.8
20260506192010 18 42 1.6 12.9 0.00 0.00 0.00 49 1021.0
20260506191530 18 81 4.8 9.7 0.00 0.00 0.00 51 1021.0
20260506191010 18 57 4.8 9.7 0.00 0.00 0.00 51 1021.1
20260506190512 18 15 3.2 9.7 0.00 0.00 0.00 51 1021.0
20260506190032 18 25 4.8 9.7 0.00 0.00 0.00 51 1021.1
20260506185514 17 110 6.4 11.3 0.00 0.00 0.00 50 1021.1
20260506185012 17 76 1.6 8.0 0.00 0.00 0.00 53 1021.2
20260506184537 17 131 3.2 12.9 0.00 0.00 0.00 51 1021.3
20260506184012 17 64 3.2 9.7 0.00 0.00 0.00 54 1021.3
20260506183512 16 327 3.2 8.0 0.00 0.00 0.00 52 1021.3
20260506183032 17 271 1.6 8.0 0.00 0.00 0.00 51 1021.3
20260506182511 17 257 1.6 14.5 0.00 0.00 0.00 52 1021.3
20260506182009 17 69 6.4 14.5 0.00 0.00 0.00 51 1021.2
20260506181538 16 66 3.2 8.0 0.00 0.00 0.00 53 1021.3
20260506181016 16 34 1.6 6.4 0.00 0.00 0.00 58 1021.5
20260506180514 16 246 1.6 8.0 0.00 0.00 0.00 56 1021.4
20260506180034 15 218 3.2 8.0 0.00 0.00 0.00 54 1021.4
20260506175511 15 183 1.6 8.0 0.00 0.00 0.00 55 1021.5
20260506175010 15 92 3.2 9.7 0.00 0.00 0.00 58 1021.5
20260506174536 15 209 3.2 14.5 0.00 0.00 0.00 56 1021.6
20260506174013 15 21 6.4 14.5 0.00 0.00 0.00 56 1021.5
20260506173510 15 348 3.2 8.0 0.00 0.00 0.00 56 1021.5
20260506173030 15 48 3.2 9.7 0.00 0.00 0.00 59 1021.5
20260506172512 15 350 4.8 9.7 0.00 0.00 0.00 57 1021.5
20260506172012 15 82 3.2 8.0 0.00 0.00 0.00 58 1021.4
20260506171534 14 51 1.6 8.0 0.00 0.00 0.00 59 1021.3
20260506171013 14 20 4.8 9.7 0.00 0.00 0.00 61 1021.5
20260506170511 13 117 4.8 9.7 0.00 0.00 0.00 60 1021.5
20260506170043 13 65 3.2 9.7 0.00 0.00 0.00 60 1021.4
20260506165512 13 44 3.2 9.7 0.00 0.00 0.00 60 1021.5
20260506165012 13 38 1.6 8.0 0.00 0.00 0.00 63 1021.6
20260506164545 13 98 1.6 8.0 0.00 0.00 0.00 63 1021.7
20260506164011 12 229 0.0 8.0 0.00 0.00 0.00 62 1021.6
20260506163509 12 42 3.2 8.0 0.00 0.00 0.00 62 1021.5
20260506163037 12 360 3.2 9.7 0.00 0.00 0.00 63 1021.5
20260506162512 12 331 1.6 6.4 0.00 0.00 0.00 64 1021.4
20260506162011 12 39 3.2 6.4 0.00 0.00 0.00 63 1021.5
20260506161535 12 222 1.6 4.8 0.00 0.00 0.00 62 1021.5
20260506161014 12 47 1.6 4.8 0.00 0.00 0.00 65 1021.5
20260506160511 11 21 3.2 9.7 0.00 0.00 0.00 66 1021.5
20260506160034 11 76 3.2 9.7 0.00 0.00 0.00 68 1021.4
20260506155511 11 74 1.6 6.4 0.00 0.00 0.00 69 1021.5
20260506155013 11 73 1.6 6.4 0.00 0.00 0.00 69 1021.6
20260506154532 11 72 1.6 6.4 0.00 0.00 0.00 70 1021.5
20260506154011 10 5 1.6 6.4 0.00 0.00 0.00 69 1021.5
20260506153511 10 79 1.6 6.4 0.00 0.00 0.00 71 1021.5
20260506153029 10 29 3.2 6.4 0.00 0.00 0.00 69 1021.5
20260506152512 10 44 1.6 6.4 0.00 0.00 0.00 72 1021.8
20260506152011 10 74 3.2 9.7 0.00 0.00 0.00 71 1021.8
20260506151538 10 59 3.2 9.7 0.00 0.00 0.00 72 1021.7
20260506151011 10 129 1.6 8.0 0.00 0.00 0.00 72 1021.8
20260506150510 10 80 1.6 6.4 0.00 0.00 0.00 73 1021.7
20260506150030 10 67 1.6 6.4 0.00 0.00 0.00 72 1021.8
20260506145510 10 34 3.2 6.4 0.00 0.00 0.00 71 1021.6
20260506145012 9 62 0.0 4.8 0.00 0.00 0.00 72 1021.4
20260506144530 9 17 1.6 6.4 0.00 0.00 0.00 72 1021.4
20260506144014 9 30 1.6 4.8 0.00 0.00 0.00 74 1021.4
20260506143512 9 84 0.0 4.8 0.00 0.00 0.00 75 1021.5
20260506143037 8 340 1.6 6.4 0.00 0.00 0.00 75 1021.5
20260506142513 8 5 1.6 6.4 0.00 0.00 0.00 76 1021.4
20260506142010 8 360 1.6 4.8 0.00 0.00 0.00 75 1021.4
20260506141540 8 40 0.0 6.4 0.00 0.00 0.00 77 1021.2
20260506141013 8 80 0.0 4.8 0.00 0.00 0.00 79 1021.2
20260506140511 7 61 1.6 4.8 0.00 0.00 0.00 80 1020.9
20260506140032 7 286 0.0 3.2 0.00 0.00 0.00 81 1020.9
20260506135510 6 286 0.0 3.2 0.00 0.00 0.00 83 1020.9
20260506135012 6 254 0.0 3.2 0.00 0.00 0.00 84 1020.9
20260506134532 5 246 0.0 4.8 0.00 0.00 0.00 85 1021.0
20260506134014 5 246 1.6 4.8 0.00 0.00 0.00 85 1021.0
20260506133512 5 223 0.0 3.2 0.00 0.00 0.00 85 1020.9
20260506133031 5 211 1.6 3.2 0.00 0.00 0.00 85 1020.9
20260506132510 5 211 0.0 1.6 0.00 0.00 0.00 85 1020.8
20260506132010 5 211 0.0 3.2 0.00 0.00 0.00 85 1020.9
20260506131533 5 211 1.6 3.2 0.00 0.00 0.00 85 1020.9
20260506131011 5 211 0.0 3.2 0.00 0.00 0.00 85 1020.8
20260506130510 5 211 1.6 4.8 0.00 0.00 0.00 85 1020.8
20260506130030 5 194 3.2 4.8 0.00 0.00 0.00 84 1020.8
20260506125514 5 258 0.0 3.2 0.00 0.00 0.00 85 1020.8
20260506125012 5 258 0.0 3.2 0.00 0.00 0.00 84 1020.8
20260506124530 5 258 1.6 4.8 0.00 0.00 0.00 85 1020.7
20260506124010 5 222 3.2 4.8 0.00 0.00 0.00 84 1020.6
20260506123510 5 257 0.0 3.2 0.00 0.00 0.00 83 1020.7
20260506123040 5 257 1.6 3.2 0.00 0.00 0.00 84 1020.6
20260506122512 5 229 0.0 3.2 0.00 0.00 0.00 84 1020.5
20260506122013 5 227 0.0 3.2 0.00 0.00 0.00 84 1020.5
20260506121540 5 239 0.0 3.2 0.00 0.00 0.00 83 1020.4
20260506121013 5 239 1.6 3.2 0.00 0.00 0.00 83 1020.4
20260506120515 5 250 1.6 3.2 0.00 0.00 0.00 85 1020.4
20260506120052 5 257 1.6 4.8 0.00 0.00 0.00 85 1020.4
20260506115512 5 242 1.6 4.8 0.00 0.00 0.00 85 1020.3
20260506115011 5 281 0.0 4.8 0.00 0.00 0.00 84 1020.3
20260506114534 5 227 1.6 4.8 0.00 0.00 0.00 85 1020.2
20260506114013 5 256 1.6 3.2 0.00 0.00 0.00 86 1020.2
20260506113512 5 259 1.6 4.8 0.00 0.00 0.00 85 1020.3
20260506113038 5 217 1.6 4.8 0.00 0.00 0.00 86 1020.2
20260506112512 5 219 0.0 3.2 0.00 0.00 0.00 86 1020.4
20260506112010 5 219 1.6 3.2 0.00 0.00 0.00 85 1020.3
20260506111541 5 219 0.0 3.2 0.00 0.00 0.00 85 1020.4
20260506111012 5 244 0.0 3.2 0.00 0.00 0.00 84 1020.2
20260506110511 5 291 1.6 3.2 0.00 0.00 0.00 85 1020.1
20260506110037 5 291 0.0 4.8 0.00 0.00 0.00 85 1020.0
20260506105511 5 291 1.6 4.8 0.00 0.00 0.00 86 1020.1
20260506105011 5 286 1.6 3.2 0.00 0.00 0.00 85 1019.9
20260506104547 5 198 1.6 3.2 0.00 0.00 0.00 86 1019.9
20260506104019 5 197 0.0 3.2 0.00 0.00 0.00 85 1020.0
20260506103512 5 271 0.0 4.8 0.00 0.00 0.00 86 1019.9
20260506103044 5 30 0.0 3.2 0.00 0.00 0.00 84 1020.1
20260506102518 5 95 1.6 3.2 0.00 0.00 0.00 84 1020.0
20260506102011 5 95 0.0 3.2 0.00 0.00 0.00 85 1019.9
20260506101535 5 167 0.0 3.2 0.00 0.00 0.00 84 1019.9
20260506101011 5 267 1.6 3.2 0.00 0.00 0.00 84 1019.7
20260506100516 5 242 0.0 3.2 0.00 0.00 0.00 85 1019.7
20260506100042 5 217 0.0 1.6 0.00 0.00 0.00 83 1019.8
20260506095513 5 217 0.0 3.2 0.00 0.00 0.00 83 1019.7
20260506095014 5 219 0.0 6.4 0.00 0.00 0.00 83 1019.8
20260506094538 5 205 3.2 6.4 0.00 0.00 0.00 83 1019.7
20260506094012 5 166 1.6 4.8 0.00 0.00 0.00 82 1019.7
20260506093513 6 283 1.6 3.2 0.00 0.00 0.00 82 1019.7
20260506093037 6 283 0.0 3.2 0.00 0.00 0.00 82 1019.7
20260506092511 6 283 1.6 3.2 0.00 0.00 0.00 82 1019.6
20260506092014 6 284 1.6 3.2 0.00 0.00 0.00 82 1019.6
20260506091537 6 252 0.0 1.6 0.00 0.00 0.00 81 1019.6
20260506091012 6 240 0.0 3.2 0.00 0.00 0.00 81 1019.5
20260506090510 5 240 0.0 3.2 0.00 0.00 0.00 82 1019.5
20260506090038 5 238 1.6 3.2 0.00 0.00 0.00 82 1019.6
20260506085512 5 214 0.0 3.2 0.00 0.00 0.00 81 1019.4
20260506085011 6 195 0.0 4.8 0.00 0.00 0.00 79 1019.6
20260506084610 6 190 3.2 4.8 0.00 0.00 0.00 78 1019.6
20260506084017 6 214 1.6 3.2 0.00 0.00 0.00 79 1019.6
20260506083512 6 259 1.6 3.2 0.00 0.00 0.00 78 1019.6
20260506083043 6 207 0.0 4.8 0.00 0.00 0.00 78 1019.6
20260506082513 6 185 1.6 6.4 0.00 0.00 0.00 78 1019.6
20260506082013 6 196 1.6 6.4 0.00 0.00 0.00 79 1019.7
20260506081549 6 230 0.0 6.4 0.00 0.00 0.00 78 1019.7
20260506081011 6 207 3.2 4.8 0.00 0.00 0.00 77 1019.8
20260506080514 6 206 1.6 6.4 0.00 0.00 0.00 77 1019.7
20260506073512 7 207 3.2 11.3 0.00 0.00 0.00 73 1019.5
20260506073038 7 190 4.8 16.1 0.00 0.00 0.00 72 1019.4
20260506072512 8 205 4.8 16.1 0.00 0.00 0.00 72 1019.3
20260506072013 7 196 0.0 4.8 0.00 0.00 0.00 72 1019.3
20260506071541 8 223 1.6 11.3 0.00 0.00 0.00 72 1019.3
20260506071010 8 182 3.2 11.3 0.00 0.00 0.00 72 1019.3
20260506070513 8 137 3.2 8.0 0.00 0.00 0.00 71 1019.2
20260506062512 8 178 3.2 11.3 0.00 0.00 0.00 70 1018.9
20260506062011 8 202 4.8 22.5 0.00 0.00 0.00 69 1018.9
20260506061535 8 138 1.6 12.9 0.00 0.00 0.00 68 1018.8
20260506061012 9 221 4.8 20.9 0.00 0.00 0.00 68 1018.8
20260506060515 9 258 4.8 24.1 0.00 0.00 0.00 67 1018.8
20260506051014 8 262 4.8 17.7 0.00 0.00 0.00 69 1018.1
20260506050514 9 347 3.2 17.7 0.00 0.00 0.00 68 1018.1
20260506045013 8 315 3.2 12.9 0.00 0.00 0.00 70 1018.3
20260506044539 8 191 3.2 12.9 0.00 0.00 0.00 71 1018.2
20260506044013 8 207 3.2 11.3 0.00 0.00 0.00 72 1018.2
20260506043511 8 188 1.6 19.3 0.00 0.00 0.00 72 1018.2
20260506043045 8 227 3.2 19.3 0.00 0.00 0.00 71 1018.1
20260506042512 8 187 4.8 11.3 0.00 0.00 0.00 71 1018.0
20260506042014 8 197 3.2 8.0 0.00 0.00 0.00 70 1018.0
20260506041543 8 207 1.6 12.9 0.00 0.00 0.00 69 1017.9
20260506041013 9 192 6.4 12.9 0.00 0.00 0.00 68 1017.8
20260506040512 9 259 3.2 16.1 0.00 0.00 0.00 68 1017.7
20260506040040 9 282 9.7 17.7 0.00 0.00 0.00 67 1017.7
20260506035513 9 283 9.7 17.7 0.00 0.00 0.00 68 1017.6
20260506035013 9 295 9.7 17.7 0.00 0.00 0.00 68 1017.8
20260506034537 9 273 9.7 22.5 0.00 0.00 0.00 69 1017.5
20260506034014 9 294 12.9 25.7 0.00 0.00 0.00 69 1017.5
20260506033514 9 304 11.3 22.5 0.00 0.00 0.00 68 1017.3
20260506033038 9 309 12.9 22.5 0.00 0.00 0.00 68 1017.3
20260506032514 9 279 12.9 20.9 0.00 0.00 0.00 68 1017.1
20260506032015 9 306 8.0 27.4 0.00 0.00 0.00 68 1017.2
20260506031541 9 279 11.3 27.4 0.00 0.00 0.00 67 1017.0
20260506031014 9 288 11.3 24.1 0.00 0.00 0.00 68 1017.0
20260506030516 9 279 11.3 22.5 0.00 0.00 0.00 67 1016.9
20260506030040 9 330 11.3 27.4 0.00 0.00 0.00 68 1016.9
20260506025514 9 261 14.5 27.4 0.00 0.00 0.00 66 1016.7
20260506025017 9 284 14.5 24.1 0.00 0.00 0.00 67 1016.7
20260506024539 9 257 12.9 27.4 0.00 0.00 0.00 68 1016.7
20260506024014 9 325 16.1 27.4 0.00 0.00 0.00 68 1016.6
20260506023516 9 288 12.9 22.5 0.00 0.00 0.00 68 1016.5
20260506023102 9 301 14.5 22.5 0.00 0.00 0.00 68 1016.2
20260506022513 9 246 12.9 20.9 0.00 0.00 0.00 67 1016.2
20260506022017 9 337 9.7 22.5 0.00 0.00 0.00 67 1016.1
20260506021600 9 273 14.5 25.7 0.00 0.00 0.00 67 1016.3
20260506021018 9 294 12.9 25.7 0.00 0.00 0.00 66 1016.1
20260506020516 9 277 16.1 25.7 0.00 0.00 0.00 67 1015.9
20260506020035 9 290 9.7 25.7 0.00 0.00 0.00 68 1016.0
20260506015512 9 274 11.3 25.7 0.00 0.00 0.00 67 1015.9
20260506015012 9 291 9.7 27.4 0.00 0.00 0.00 67 1015.7
20260506014544 9 338 14.5 29.0 0.00 0.00 0.00 68 1015.9
20260506014015 9 290 16.1 32.2 0.00 0.00 0.00 66 1015.9
20260506013516 9 274 16.1 32.2 0.00 0.00 0.00 66 1015.9
20260506013053 9 230 8.0 30.6 0.00 0.00 0.00 69 1016.0
20260506012512 9 253 12.9 30.6 0.00 0.00 0.00 68 1015.7
20260506012015 9 269 11.3 25.7 0.00 0.00 0.00 68 1015.8
20260506011537 9 250 11.3 27.4 0.00 0.00 0.00 69 1015.8
20260506011013 9 283 14.5 29.0 0.00 0.00 0.00 69 1015.7
20260506010513 10 310 12.9 29.0 0.00 0.00 0.00 68 1015.6
20260506010039 10 269 8.0 20.9 0.00 0.00 0.00 69 1015.8
20260506005514 9 315 12.9 37.0 0.00 0.00 0.00 69 1015.7
20260506005017 10 315 12.9 35.4 0.00 0.00 0.00 69 1015.4
20260506004537 10 302 11.3 27.4 0.00 0.00 0.00 69 1015.6
20260506004016 9 251 16.1 33.8 0.00 0.00 0.00 68 1015.4
20260506003517 9 265 19.3 33.8 0.00 0.00 0.00 69 1015.3
20260506003035 9 297 17.7 33.8 0.00 0.00 0.00 69 1015.3
20260506002516 9 278 16.1 29.0 0.00 0.00 0.00 68 1015.6
20260506002017 9 269 9.7 29.0 0.00 0.00 0.00 68 1015.6
20260506001542 9 282 9.7 20.9 0.00 0.00 0.00 72 1016.0
20260506001013 9 284 14.5 24.1 0.00 0.00 0.00 72 1015.9
20260506000515 9 300 12.9 25.7 0.00 0.00 0.00 73 1015.7
20260506000044 9 273 14.5 25.7 0.00 0.00 0.00 74 1015.6
20260505235516 10 315 12.9 20.9 0.00 0.00 0.00 72 1015.7
20260505235013 10 281 8.0 24.1 0.00 0.00 0.00 71 1015.7
20260505234551 10 261 12.9 30.6 0.00 0.00 0.00 70 1015.6
20260505234016 10 346 12.9 30.6 0.00 0.00 0.00 68 1015.6
20260505233514 10 309 8.0 22.5 0.00 0.00 0.00 67 1015.5
20260505233039 10 205 6.4 22.5 0.00 0.00 0.00 68 1015.5
20260505232512 10 17 8.0 22.5 0.00 0.00 0.00 70 1015.6
20260505232017 10 291 11.3 22.5 0.00 0.00 0.00 68 1015.7
20260505231603 10 242 8.0 22.5 0.00 0.00 0.00 70 1015.7
20260505231016 10 221 9.7 22.5 0.00 0.00 0.00 71 1015.7
20260505230514 10 189 6.4 24.1 0.00 0.00 0.00 71 1015.5
20260505230037 9 256 4.8 19.3 0.00 0.00 0.00 74 1015.4
20260505225516 9 300 6.4 20.9 0.00 0.00 0.00 75 1015.7
20260505225015 9 317 8.0 20.9 0.00 0.00 0.00 76 1015.8
20260505224546 9 71 4.8 14.5 0.00 0.00 0.00 77 1015.9
20260505224016 9 20 4.8 14.5 0.00 0.00 0.00 77 1015.8
20260505223516 9 340 3.2 19.3 0.00 0.00 0.00 76 1016.0
20260505223042 9 65 6.4 25.7 0.00 0.00 0.00 75 1016.1
20260505222517 9 333 12.9 25.7 0.00 0.00 0.00 74 1015.9
20260505222013 9 10 12.9 38.6 0.00 0.00 0.00 75 1016.0
20260505221537 10 346 14.5 38.6 0.00 0.00 0.00 73 1016.0
20260505221016 10 273 8.0 17.7 0.00 0.00 0.00 73 1016.0
20260505220519 10 341 6.4 25.7 0.00 0.00 0.00 74 1016.0
20260505220054 10 350 12.9 30.6 0.00 0.00 0.00 73 1016.1
20260505215515 10 293 9.7 22.5 0.00 0.00 0.00 70 1016.1
20260505215017 11 256 8.0 17.7 0.00 0.00 0.00 68 1016.1
20260505214550 11 5 6.4 20.9 0.00 0.00 0.00 68 1016.1
20260505214018 11 304 9.7 27.4 0.00 0.00 0.00 68 1016.0
20260505213517 10 286 9.7 27.4 0.00 0.00 0.00 67 1016.0
20260505213042 10 298 9.7 27.4 0.00 0.00 0.00 68 1016.1
20260505212514 10 297 16.1 27.4 0.00 0.00 0.00 67 1016.0
20260505212015 11 294 8.0 24.1 0.00 0.00 0.00 68 1016.0